Regional Weather Roundup
Issued by NWS Little Rock, AR

Home | Current Version | Previous Version | Graphics & Text | Print | Product List | Glossary On
Versions: 1 2 3 4 5 6 7 8 9 10 11 12 13 14 15 16 17 18 19 20 21 22 23 24 25 26 27 28 29 30 31 32 33 34 35 36 37 38 39 40 41 42 43 44 45 46 47 48 49 50
000
ASUS44 KLZK 191405
RWRLZK

WEATHER ROUNDUP FOR ARKANSAS
NATIONAL WEATHER SERVICE LITTLE ROCK AR
800 AM CST FRI DEC 19 2014

NOTE: "FAIR" INDICATES FEW OR NO CLOUDS BELOW 12,000 FEET WITH NO
SIGNIFICANT WEATHER AND/OR OBSTRUCTIONS TO VISIBILITY.

ARZ001-003-010-029-191500-
NORTHWEST ARKANSAS

CITY           SKY/WX    TMP DP  RH WIND       PRES   REMARKS
FAYETTEVILLE   FOG       40  40 100 CALM      30.22R VSB 1/2
FORT SMITH     CLOUDY    41  38  89 E6        30.24R FOG
HARRISON       FOG       36  36 100 SE5       30.23R VSB 1/2
BENTONVILLE    CLOUDY    39  36  87 E3        30.23R
ROGERS         CLOUDY    38  37  97 E3        30.23R FOG
SILOAM SPGS    CLOUDY    39  34  81 CALM      30.24R VSB<1/4
HIGHFILL       CLOUDY    39  39 100 E3        30.22R FOG
SPRINGDALE     FOG       39  39 100 E3        30.24R VSB 1/4
$$

ARZ004-005-016-191500-
NORTH CENTRAL ARKANSAS

CITY           SKY/WX    TMP DP  RH WIND       PRES   REMARKS
BATESVILLE     CLOUDY    37  36  93 NE6       30.28R
FLIPPIN        CLOUDY    37  34  87 E3        30.26R
MTN HOME       CLOUDY    37  36  96 E3        30.24R FOG
$$

ARZ040-041-191500-
WEST CENTRAL ARKANSAS

CITY           SKY/WX    TMP DP  RH WIND       PRES   REMARKS
MENA           CLOUDY    43  41  93 CALM      30.22S VSB 3/4
MOUNT IDA      CLOUDY    41  39  93 CALM      30.21R
$$

ARZ009-017-025-026-028-191500-
NORTHEAST ARKANSAS

CITY           SKY/WX    TMP DP  RH WIND       PRES   REMARKS
CORNING        CLOUDY    36  32  87 NE9       30.30R FOG
JONESBORO      CLOUDY    37  34  89 NE9       30.29R
NEWPORT        CLOUDY    38  37  96 N8        30.30R FOG
WALNUT RIDGE   CLOUDY    36  30  80 NE10      30.29R
BLYTHEVILLE    CLOUDY    37  34  89 NE9       30.27S
NW BLYTHEVILLE CLOUDY    37  32  81 NE9       30.27
$$

ARZ022-023-033-042-044-191500-
CENTRAL ARKANSAS

CITY           SKY/WX    TMP DP  RH WIND       PRES   REMARKS
LITTLE ROCK    CLOUDY    42  37  82 NE7       30.26R FOG
N LITTLE ROCK  CLOUDY    39  39  98 NE9       30.26R
JACKSONVILLE   CLOUDY    40  38  93 NE5       30.25S
SEARCY         CLOUDY    40  37  89 NE9       30.28S FOG
HOT SPRINGS    CLOUDY    40  39  97 N5        30.25R FOG
RUSSELLVILLE   CLOUDY    41  39  93 VRB3      30.25R FOG
CLINTON        CLOUDY    39  37  93 CALM      30.29R FOG
$$

ARZ036-191500-
EAST ARKANSAS

CITY           SKY/WX    TMP DP  RH WIND       PRES   REMARKS
WEST MEMPHIS   CLOUDY    41  38  89 E7        30.26R
$$

ARZ050-053-066-070-073-191500-
SOUTHWEST ARKANSAS

CITY           SKY/WX    TMP DP  RH WIND       PRES   REMARKS
ARKADELPHIA    CLOUDY    42  42 100 NE6       30.24S FOG
CAMDEN         CLOUDY    45  39  81 MISG      30.22S FOG
TEXARKANA      CLOUDY    42  42 100 NE8       30.20S FOG
EL DORADO      CLOUDY    44  41  89 N7        30.20R
DE QUEEN       CLOUDY    44  42  93 E6        30.21R
$$

ARZ056-057-069-191500-
SOUTHEAST ARKANSAS

CITY           SKY/WX    TMP DP  RH WIND       PRES   REMARKS
PINE BLUFF     CLOUDY    42  39  89 NE6       30.24R FOG
STUTTGART        N/A     41  37  87 NE8       30.25S
MONTICELLO     CLOUDY    43  40  89 NE6       30.22S FOG

$$





USA.gov is the U.S. government's official web portal to all federal, state and local government web resources and services.